Regional Weather Roundup
Issued by NWS

Home | Current Version | Previous Version | Graphics & Text | Print | Product List | Glossary On
Versions: 1 2 3 4 5 6 7 8 9 10 11 12 13 14 15 16 17 18 19 20 21 22 23 24 25 26 27 28 29 30 31 32 33 34 35 36 37 38 39 40 41 42 43 44 45 46 47 48 49 50
000
ASUS43 KMKX 180559
RWRWI

WISCONSIN REGIONAL WEATHER ROUNDUP
NATIONAL WEATHER SERVICE MILWAUKEE/SULLIVAN WI
1200 AM CST MON DEC 18 2017

NOTE: "FAIR" INDICATES FEW OR NO CLOUDS BELOW 12,000 FEET WITH NO
SIGNIFICANT WEATHER AND/OR OBSTRUCTIONS TO VISIBILITY.

WIZ001-002-006>008-014>016-023>028-180700-
NORTHWEST WISCONSIN

CITY           SKY/WX    TMP DP  RH WIND       PRES   REMARKS
SUPERIOR ARPT  CLOUDY    26  23  88 SW7       29.92F WCI  18
ASHLAND        CLOUDY    27  23  85 SW12      29.91F WCI  17
6HR MIN TEMP:  27; 6HR MAX TEMP:  28;

HAYWARD        CLOUDY    27  25  92 SW5       29.89F FOG     WCI  22
6HR MIN TEMP:  26; 6HR MAX TEMP:  27;

SIREN          CLOUDY    26  25  94 SW5       29.92F FOG     WCI  20
CUMBERLAND     CLOUDY    27  25  93 SW6       29.91F FOG     WCI  20
RICE LAKE      CLOUDY    27  26  98 CALM      29.93F FOG
CHETEK         CLOUDY    26  26  97 S5        29.92F WCI  21
LADYSMITH      CLOUDY    28  27  96 SW3       29.93F FOG
EAU CLAIRE     NOT AVBL
MENOMONIE      CLOUDY    27  26  96 SW3       29.94F FOG
NEW RICHMOND   CLOUDY    26  24  96 SW3       29.93F FOG
OSCEOLA        CLOUDY    27  27 100 S6        29.96F FOG     WCI  20
$$

WIZ003>005-009-010-017-018-180700-
NORTH CENTRAL WISCONSIN

CITY           SKY/WX    TMP DP  RH WIND       PRES   REMARKS
MANITOWISH WTR CLOUDY    24  24 100 SW8       29.87F FOG     WCI  16
ARBOR VITAE    CLOUDY    27  26  96 SW3       29.88F FOG
WOODRUFF       CLOUDY    27  26  96 SW3       29.88F FOG
RHINELANDER    CLOUDY    26  26 100 W8        29.88F FOG     WCI  18
6HR MIN TEMP:  26; 6HR MAX TEMP:  26; 6HR PCP: TRACE;

EAGLE RIVER    CLOUDY    26  26 100 W6        29.87F FOG     WCI  19
LAND O LAKES   CLOUDY    26  26  98 SW5       29.88F FOG     WCI  20
PHILLIPS       CLOUDY    25  25 100 SW3       29.89F
TOMAHAWK       CLOUDY    25  24  95 CALM      29.90F FOG
MEDFORD        FOG       26  25  97 SW5       29.89F VSB 3/4 WCI  20
MERRILL        FOG       27  27 100 CALM      29.92F VSB 1/2
$$

WIZ029-030-035-036-043>047-180700-
CENTRAL WISCONSIN

CITY           SKY/WX    TMP DP  RH WIND       PRES   REMARKS
WAUSAU         LGT SNOW  27  27 100 W5        29.89F VSB 1   WCI  21
6HR MIN TEMP:  27; 6HR MAX TEMP:  27; 6HR PCP:  0.01;

MOSINEE        CLOUDY    28  28 100 W5        29.92F FOG     WCI  23
MARSHFIELD     CLOUDY    27  27 100 SW7       29.90F FOG     WCI  19
STEVENS POINT  FOG       26  26 100 CALM      29.93F VSB 1/4
WAUPACA        CLOUDY    30  28  90 CALM      29.95F FOG
WAUTOMA        NOT AVBL
WISC RAPIDS    NOT AVBL
CAMP DOUGLAS   NOT AVBL
$$

WIZ011>013-019>022-031-037>040-048>050-180700-
NORTHEAST WISCONSIN

CITY           SKY/WX    TMP DP  RH WIND       PRES   REMARKS
ANTIGO         CLOUDY    25  25 100 W8        29.89F FOG     WCI  16
SHAWANO        FOG       30  28  94 CALM      29.94S VSB 1/2
OCONTO         CLOUDY    28  27  99 W3        29.94F VSB 1/2
STURGEON BAY   NOT AVBL
GREEN BAY      CLOUDY    30  27  88 W5        29.94F FOG     WCI  25
6HR MIN TEMP:  30; 6HR MAX TEMP:  31; 6HR PCP:  0.01;

MANITOWOC      NOT AVBL
APPLETON       CLOUDY    30  28  93 CALM      29.92F FOG
CLINTONVILLE   NOT AVBL
OSHKOSH        CLOUDY    30  28  92 CALM      29.92F FOG
6HR MIN TEMP:  30; 6HR MAX TEMP:  30;

$$

WIZ032>034-041-042-053>061-180700-
SOUTHWEST WISCONSIN

CITY           SKY/WX    TMP DP  RH WIND       PRES   REMARKS
LA CROSSE      CLOUDY    31  28  89 W6        29.95F FOG     WCI  25
6HR MIN TEMP:  31; 6HR MAX TEMP:  32; 6HR PCP: TRACE;

SPARTA         CLOUDY    30  28  94 CALM      29.96S FOG
VIROQUA        CLOUDY    30  30 100 CALM      29.93S
BOSCOBEL       CLOUDY    34  29  82 CALM      29.94F
6HR MIN TEMP:  33; 6HR MAX TEMP:  34;

PRAIRIE DU CHI CLOUDY    32  29  86 CALM      29.95F FOG
PLATTEVILLE    CLOUDY    33  33 100 CALM      29.94F VSB 1/2
$$

WIZ056-057-062-063-064-067-068-180700-
SOUTH CENTRAL WISCONSIN

CITY           SKY/WX    TMP DP  RH WIND       PRES   REMARKS
REEDSBURG      CLOUDY    31  31 100 CALM      29.93F FOG
BARABOO/DELLS  CLOUDY    30  29  94 S3        29.93F FOG
LONE ROCK      NOT AVBL
MINERAL POINT  LGT RAIN  34  34 100 CALM      29.92F VSB 3/4
MADISON        MIX PCPN  32  31  96 S6        29.93F VSB 1   WCI  26
6HR MIN TEMP:  32; 6HR MAX TEMP:  33; 6HR PCP:  0.02;

MIDDLETON      CLOUDY    33  32  96 S3        29.94F
WATERTOWN      CLOUDY    32  32 100 CALM      29.94F FOG
MONROE         LGT RAIN  32  32 100 S3        29.93F VSB 1/2
JANESVILLE     MOCLDY    34  34 100 CALM      29.94F FOG
$$

WIZ051-052-058>065-066-070>072-180700-
SOUTHEAST WISCONSIN

CITY           SKY/WX    TMP DP  RH WIND       PRES   REMARKS
MILWAUKEE      DRIZZLE   35  33  92 S3        29.95F FOG
6HR MIN TEMP:  35; 6HR MAX TEMP:  36; 6HR PCP: TRACE;

WAUKESHA       CLOUDY    32  30  93 CALM      29.96F FOG
MILWAUKEE/TIMM DRIZZLE   32  30  93 CALM      29.96F
RACINE         CLOUDY    35  33  92 CALM      29.97F FOG
6HR MIN TEMP:  34; 6HR MAX TEMP:  35;

BURLINGTON     MOCLDY    46  46 100 CALM      29.95F FOG
KENOSHA        CLOUDY    35  32  88 S3        29.94F FOG
6HR MIN TEMP:  33; 6HR MAX TEMP:  35; 6HR PCP: TRACE;

FOND DU LAC    CLOUDY    30  27  88 S3        29.93F FOG
6HR MIN TEMP:  30; 6HR MAX TEMP:  31;

SHEBOYGAN      CLOUDY    30  30 100 W5        29.94F FOG     WCI  25
6HR MIN TEMP:  30; 6HR MAX TEMP:  31;

WEST BEND      CLOUDY    32  32 100 W5        29.95S FOG     WCI  27
JUNEAU         MIX PCPN  30  29  98 CALM      29.95F VSB<1/4
$$

LSZ147-162-180700-
LAKE SUPERIOR

STATION/POSITION TIME  TEMP    WIND        PRES    WAVE
                       AIR SEA DIR/SP/G            HT/PER
                 (UTC) (F)     (DEG/KT/KT) (MB)    (FT/S)
DEVILS ISLAND    0500   28     220/ 15/ 21 1013.6F
SAXON HARBOR     0540   28                 1012.5F
$$

LMZ867-665-643>646-180700-
LAKE MICHIGAN

STATION/POSITION TIME  TEMP    WIND        PRES    WAVE
                       AIR SEA DIR/SP/G            HT/PER
                 (UTC) (F)     (DEG/KT/KT) (MB)    (FT/S)
NORTHPORT PIER   0540   32      CALM  /  4 1013.5F
KEWAUNEE LAKESHO 0530   30     280/  5/ 10 1013.3F
SHEBOYGAN LAKESH 0500   31     300/  5/  5 1015.0F
PORT WASHINGTON  0530   33     240/  2/  2 1015.6S
MILWAUKEE LAKESH 0530   35     220/  3/  4   N/A
KENOSHA   LAKESH 0500   35      CALM  /  2 1015.2
$$

TC  - TEMPERATURE IN CELSIUS
VSB - VISIBILITY IN STATUTE MILES
WCI - WIND CHILL INDEX
HX  - HEAT INDEX





USA.gov is the U.S. government's official web portal to all federal, state and local government web resources and services.